User: anonymous   Login
Location: Unspecified
(0.0000°N, 0.0000°E)
Time: 03:22:49
(UTC+00:00)
Language:

STARLINK-31945 - Orbit

View from above orbital plane
View from above orbital plane
View from above satellite
View from above satellite

Ground track
Ground track

The orbit is defined by the following mean orbital elements,

1 59870U          26145.58772252 +.00000000 +00000-0 +78384-4 0 00002
2 59870  43.0006 199.6542 0001468 264.5850  95.4835 15.27576134    04
Epoch (UTC): 25 May 2026 14:06:19
Eccentricity: 0.0001468
inclination: 43.0006°
perigee height: 482 km
apogee height: 484 km
right ascension of ascending node: 199.6542°
argument of perigee: 264.5850°
revolutions per day: 15.27576134
mean anomaly at epoch: 95.4835°

The dashed part of the orbit path shows where the satellite is in the earth's shadow,  

DLR